Location: Unspecified
(41.1637°N, 24.2901°E)
Time: 03:15:04
(UTC+01:00)

ISS - Pass Details

Date: 05 November 2025
Orbit: 414 x 420 km, 51.6° (Epoch: 18 November)

Event Time Altitude Azimuth Distance (km) Brightness Sun altitude
Exits shadow 04:43:38 16° 225° (SW) 1,194 -1.8 -14.5°
Drops below altitude 10° 04:45:34 10° 190° (S) 1,491 -1.0 -14.1°
Sets 04:48:14 0° 167° (SSE) 2,351 0.3 -13.7°
